owner,sensor,date,latitude,longitude,vertical_datum,wind_speed,wind_to_direction,wind_speed_of_gust,qcFlag 
TABS,ioos:station:wmo:42044:1,2014-10-01T00:00:00Z,26.1914,-97.0507,0.0,4.727472898,141.7001236,5.97,'11111222,11111222,11111222' 
TABS,ioos:station:wmo:42044:1,2014-10-01T00:30:00Z,26.1914,-97.0507,0.0,5.300537709,141.3573741,7.0,'11111222,11111222,11111222' 
TABS,ioos:station:wmo:42044:1,2014-10-01T01:00:00Z,26.1914,-97.0507,0.0,4.847690172,141.6173702,6.08,'11111222,11111222,11111222' 
TABS,ioos:station:wmo:42044:1,2014-10-01T01:30:00Z,26.1914,-97.0507,0.0,4.80026041,148.8932363,5.93,'11111222,11111222,11111222' 
TABS,ioos:station:wmo:42044:1,2014-10-01T02:00:00Z,26.1914,-97.0507,0.0,5.070009862,148.2225022,6.2,'11111222,11111222,11111222' 
TABS,ioos:station:wmo:42044:1,2014-10-01T02:30:00Z,26.1914,-97.0507,0.0,4.877909388,151.333572,6.17,'11111222,11111222,11111222' 
TABS,ioos:station:wmo:42044:1,2014-10-01T03:00:00Z,26.1914,-97.0507,0.0,4.751178801,151.8710398,6.08,'11111222,11111222,11111222' 
TABS,ioos:station:wmo:42044:1,2014-10-01T03:30:00Z,26.1914,-97.0507,0.0,5.327607343,158.2987048,7.07,'11111222,11111222,11111222' 
TABS,ioos:station:wmo:42044:1,2014-10-01T04:00:00Z,26.1914,-97.0507,0.0,5.42324626,163.503391,6.85,'11111222,11111222,11111222' 
TABS,ioos:station:wmo:42044:1,2014-10-01T04:30:00Z,26.1914,-97.0507,0.0,5.74220341,167.2225103,6.94,'11111222,11111222,11111222' 
TABS,ioos:station:wmo:42044:1,2014-10-01T05:00:00Z,26.1914,-97.0507,0.0,5.908942376,171.2393245,7.39,'11111222,11111222,11111222' 
TABS,ioos:station:wmo:42044:1,2014-10-01T05:30:00Z,26.1914,-97.0507,0.0,6.218552886,175.5732492,8.35,'11111222,11111222,11111222' 
TABS,ioos:station:wmo:42044:1,2014-10-01T06:00:00Z,26.1914,-97.0507,0.0,6.493458247,173.3677114,8.79,'11111222,11111222,11111222' 
TABS,ioos:station:wmo:42044:1,2014-10-01T06:30:00Z,26.1914,-97.0507,0.0,6.617129287,173.9277683,8.52,'11111222,11111222,11111222' 
TABS,ioos:station:wmo:42044:1,2014-10-01T07:00:00Z,26.1914,-97.0507,0.0,6.67026986,176.8203878,8.47,'11111222,11111222,11111222' 
TABS,ioos:station:wmo:42044:1,2014-10-01T07:30:00Z,26.1914,-97.0507,0.0,6.380501548,179.2818074,8.3,'11111222,11111222,11111222' 
TABS,ioos:station:wmo:42044:1,2014-10-01T08:00:00Z,26.1914,-97.0507,0.0,6.370384604,180.6298076,8.28,'11111222,11111222,11111222' 
TABS,ioos:station:wmo:42044:1,2014-10-01T08:30:00Z,26.1914,-97.0507,0.0,5.983686155,182.0114384,7.84,'11111222,11111222,11111222' 
TABS,ioos:station:wmo:42044:1,2014-10-01T09:00:00Z,26.1914,-97.0507,0.0,6.066712454,184.2540369,7.82,'11111222,11111222,11111222' 
TABS,ioos:station:wmo:42044:1,2014-10-01T09:30:00Z,26.1914,-97.0507,0.0,6.184504831,185.1023638,7.92,'11111222,11111222,11111222' 
TABS,ioos:station:wmo:42044:1,2014-10-01T10:00:00Z,26.1914,-97.0507,0.0,5.932183409,183.6729328,7.57,'11111222,11111222,11111222' 
TABS,ioos:station:wmo:42044:1,2014-10-01T10:30:00Z,26.1914,-97.0507,0.0,5.282281704,183.9080735,6.72,'11111222,11111222,11111222' 
TABS,ioos:station:wmo:42044:1,2014-10-01T11:00:00Z,26.1914,-97.0507,0.0,5.197816849,184.7455328,6.52,'11111222,11111222,11111222' 
TABS,ioos:station:wmo:42044:1,2014-10-01T11:30:00Z,26.1914,-97.0507,0.0,5.225935323,185.7107902,6.61,'11111222,11111222,11111222' 
TABS,ioos:station:wmo:42044:1,2014-10-01T12:00:00Z,26.1914,-97.0507,0.0,4.703796339,184.3895633,6.08,'11111222,11111222,11111222' 
TABS,ioos:station:wmo:42044:1,2014-10-01T12:30:00Z,26.1914,-97.0507,0.0,4.828716185,183.4433082,6.19,'11111222,11111222,11111222' 
TABS,ioos:station:wmo:42044:1,2014-10-01T13:00:00Z,26.1914,-97.0507,0.0,4.890654353,180.9374789,6.16,'11111222,11111222,11111222' 
TABS,ioos:station:wmo:42044:1,2014-10-01T13:30:00Z,26.1914,-97.0507,0.0,4.422589739,188.8448491,5.46,'11111222,11111222,11111222' 
TABS,ioos:station:wmo:42044:1,2014-10-01T14:00:00Z,26.1914,-97.0507,0.0,3.913425609,192.544869,4.96,'11111222,11111222,11111222' 
TABS,ioos:station:wmo:42044:1,2014-10-01T14:30:00Z,26.1914,-97.0507,0.0,3.593897606,188.964528,4.4,'11111222,11111222,11111222' 
TABS,ioos:station:wmo:42044:1,2014-10-01T15:00:00Z,26.1914,-97.0507,0.0,4.009788024,175.9960469,5.29,'11111222,11111222,11111222' 
TABS,ioos:station:wmo:42044:1,2014-10-01T15:30:00Z,26.1914,-97.0507,0.0,4.455490994,166.3694603,5.51,'11111222,11111222,11111222' 
TABS,ioos:station:wmo:42044:1,2014-10-01T16:00:00Z,26.1914,-97.0507,0.0,4.807296538,167.8721848,6.1,'11111222,11111222,11111222' 
TABS,ioos:station:wmo:42044:1,2014-10-01T16:30:00Z,26.1914,-97.0507,0.0,4.695742753,169.6953881,5.89,'11111222,11111222,11111222' 
TABS,ioos:station:wmo:42044:1,2014-10-01T17:00:00Z,26.1914,-97.0507,0.0,4.886972478,172.9479209,6.09,'11111222,11111222,11111222' 
TABS,ioos:station:wmo:42044:1,2014-10-01T17:30:00Z,26.1914,-97.0507,0.0,4.507870894,170.8095507,5.89,'11111222,11111222,11111222' 
TABS,ioos:station:wmo:42044:1,2014-10-01T18:00:00Z,26.1914,-97.0507,0.0,4.044007913,173.7539094,5.15,'11111222,11111222,11111222' 
TABS,ioos:station:wmo:42044:1,2014-10-01T18:30:00Z,26.1914,-97.0507,0.0,4.67051389,167.51135,6.0,'11111222,11111222,11111222' 
TABS,ioos:station:wmo:42044:1,2014-10-01T19:00:00Z,26.1914,-97.0507,0.0,5.135601231,161.847547,6.16,'11111222,11111222,11111222' 
TABS,ioos:station:wmo:42044:1,2014-10-01T19:30:00Z,26.1914,-97.0507,0.0,5.184293587,160.2720901,6.25,'11111222,11111222,11111222' 
TABS,ioos:station:wmo:42044:1,2014-10-01T20:00:00Z,26.1914,-97.0507,0.0,5.107210589,163.6233705,6.51,'11111222,11111222,11111222' 
TABS,ioos:station:wmo:42044:1,2014-10-01T20:30:00Z,26.1914,-97.0507,0.0,5.782879905,164.0412424,7.74,'11111222,11111222,11111222' 
TABS,ioos:station:wmo:42044:1,2014-10-01T21:00:00Z,26.1914,-97.0507,0.0,5.831654997,160.8817666,7.25,'11111222,11111222,11111222' 
TABS,ioos:station:wmo:42044:1,2014-10-01T21:30:00Z,26.1914,-97.0507,0.0,5.828456056,162.2181298,7.35,'11111222,11111222,11111222' 
TABS,ioos:station:wmo:42044:1,2014-10-01T22:00:00Z,26.1914,-97.0507,0.0,5.603293674,163.4087405,7.49,'11111222,11111222,11111222' 
TABS,ioos:station:wmo:42044:1,2014-10-01T22:30:00Z,26.1914,-97.0507,0.0,5.145726382,158.5710306,6.51,'11111222,11111222,11111222' 
TABS,ioos:station:wmo:42044:1,2014-10-01T23:00:00Z,26.1914,-97.0507,0.0,5.380427492,159.2074043,6.8,'11111222,11111222,11111222' 
TABS,ioos:station:wmo:42044:1,2014-10-01T23:30:00Z,26.1914,-97.0507,0.0,5.940412444,154.6862076,7.16,'11111222,11111222,11111222' 
TABS,ioos:station:wmo:42044:1,2014-10-02T00:00:00Z,26.1914,-97.0507,0.0,6.026084965,156.1150083,7.6,'11111222,11111222,11111222' 
TABS,ioos:station:wmo:42044:1,2014-10-02T00:30:00Z,26.1914,-97.0507,0.0,6.070823667,154.9548674,7.65,'11111222,11111222,11111222' 
TABS,ioos:station:wmo:42044:1,2014-10-02T01:00:00Z,26.1914,-97.0507,0.0,7.105666753,159.142213,9.05,'11111222,11111222,11111222' 
TABS,ioos:station:wmo:42044:1,2014-10-02T01:30:00Z,26.1914,-97.0507,0.0,7.047226405,157.9119987,8.69,'11111222,11111222,11111222' 
TABS,ioos:station:wmo:42044:1,2014-10-02T02:00:00Z,26.1914,-97.0507,0.0,7.379444424,156.9444033,9.13,'11111222,11111222,11111222' 
TABS,ioos:station:wmo:42044:1,2014-10-02T02:30:00Z,26.1914,-97.0507,0.0,7.149636354,156.7701063,8.84,'11111222,11111222,11111222' 
TABS,ioos:station:wmo:42044:1,2014-10-02T03:00:00Z,26.1914,-97.0507,0.0,7.325967513,155.5692581,10.01,'11111222,11111222,11111222' 
TABS,ioos:station:wmo:42044:1,2014-10-02T03:30:00Z,26.1914,-97.0507,0.0,7.565883954,156.7221246,9.42,'11111222,11111222,11111222' 
TABS,ioos:station:wmo:42044:1,2014-10-02T04:00:00Z,26.1914,-97.0507,0.0,7.407759445,157.6243348,9.18,'11111222,11111222,11111222' 
TABS,ioos:station:wmo:42044:1,2014-10-02T04:30:00Z,26.1914,-97.0507,0.0,7.441404437,160.8591893,9.34,'11111222,11111222,11111222' 
TABS,ioos:station:wmo:42044:1,2014-10-02T05:00:00Z,26.1914,-97.0507,0.0,7.759465188,162.9898111,9.33,'11111222,11111222,11111222' 
TABS,ioos:station:wmo:42044:1,2014-10-02T05:30:00Z,26.1914,-97.0507,0.0,7.833938984,164.5270304,9.63,'11111222,11111222,11111222' 
TABS,ioos:station:wmo:42044:1,2014-10-02T06:00:00Z,26.1914,-97.0507,0.0,7.789133456,167.0166509,9.52,'11111222,11111222,11111222' 
TABS,ioos:station:wmo:42044:1,2014-10-02T06:30:00Z,26.1914,-97.0507,0.0,7.527363416,164.1175843,9.32,'11111222,11111222,11111222' 
TABS,ioos:station:wmo:42044:1,2014-10-02T07:00:00Z,26.1914,-97.0507,0.0,7.499926666,162.9424548,9.54,'11111222,11111222,11111222' 
TABS,ioos:station:wmo:42044:1,2014-10-02T07:30:00Z,26.1914,-97.0507,0.0,7.805158551,166.5159296,9.57,'11111222,11111222,11111222' 
TABS,ioos:station:wmo:42044:1,2014-10-02T08:00:00Z,26.1914,-97.0507,0.0,7.715763086,166.7384615,10.19,'11111222,11111222,11111222' 
TABS,ioos:station:wmo:42044:1,2014-10-02T08:30:00Z,26.1914,-97.0507,0.0,7.239737564,166.1751386,9.14,'11111222,11111222,11111222' 
TABS,ioos:station:wmo:42044:1,2014-10-02T09:00:00Z,26.1914,-97.0507,0.0,7.046396242,166.7923129,8.95,'11111222,11111222,11111222' 
TABS,ioos:station:wmo:42044:1,2014-10-02T09:30:00Z,26.1914,-97.0507,0.0,7.512363144,167.703062,9.78,'11111222,11111222,11111222' 
TABS,ioos:station:wmo:42044:1,2014-10-02T10:00:00Z,26.1914,-97.0507,0.0,7.587160207,167.594296,9.59,'11111222,11111222,11111222' 
TABS,ioos:station:wmo:42044:1,2014-10-02T10:30:00Z,26.1914,-97.0507,0.0,7.835636541,167.1700458,10.11,'11111222,11111222,11111222' 
TABS,ioos:station:wmo:42044:1,2014-10-02T11:00:00Z,26.1914,-97.0507,0.0,7.632856608,166.4373563,9.51,'11111222,11111222,11111222' 
TABS,ioos:station:wmo:42044:1,2014-10-02T11:30:00Z,26.1914,-97.0507,0.0,7.333989365,164.5806821,9.42,'11111222,11111222,11111222' 
TABS,ioos:station:wmo:42044:1,2014-10-02T12:00:00Z,26.1914,-97.0507,0.0,7.004241572,164.5155443,8.95,'11111222,11111222,11111222' 
TABS,ioos:station:wmo:42044:1,2014-10-02T12:30:00Z,26.1914,-97.0507,0.0,6.935567749,162.3751756,8.88,'11111222,11111222,11111222' 
TABS,ioos:station:wmo:42044:1,2014-10-02T13:00:00Z,26.1914,-97.0507,0.0,6.906844431,164.635993,8.65,'11111222,11111222,11111222' 
TABS,ioos:station:wmo:42044:1,2014-10-02T13:30:00Z,26.1914,-97.0507,0.0,6.914694498,162.9279817,9.05,'11111222,11111222,11111222' 
TABS,ioos:station:wmo:42044:1,2014-10-02T14:00:00Z,26.1914,-97.0507,0.0,7.435435428,162.4669483,9.17,'11111222,11111222,11111222' 
TABS,ioos:station:wmo:42044:1,2014-10-02T14:30:00Z,26.1914,-97.0507,0.0,7.487603088,163.7920778,9.02,'11111222,11111222,11111222' 
TABS,ioos:station:wmo:42044:1,2014-10-02T15:00:00Z,26.1914,-97.0507,0.0,7.106335202,166.1595473,9.01,'11111222,11111222,11111222' 
TABS,ioos:station:wmo:42044:1,2014-10-02T15:30:00Z,26.1914,-97.0507,0.0,7.529807434,167.1082839,9.52,'11111222,11111222,11111222' 
TABS,ioos:station:wmo:42044:1,2014-10-02T16:00:00Z,26.1914,-97.0507,0.0,7.994423056,163.8776494,10.11,'11111222,11111222,11111222' 
TABS,ioos:station:wmo:42044:1,2014-10-02T16:30:00Z,26.1914,-97.0507,0.0,7.104378931,162.8915921,9.35,'11111222,11111222,11111222' 
TABS,ioos:station:wmo:42044:1,2014-10-02T17:00:00Z,26.1914,-97.0507,0.0,6.813354534,166.6778638,8.41,'11111222,11111222,11111222' 
TABS,ioos:station:wmo:42044:1,2014-10-02T17:30:00Z,26.1914,-97.0507,0.0,6.573431372,166.8096306,8.27,'11111222,11111222,11111222' 
TABS,ioos:station:wmo:42044:1,2014-10-02T18:00:00Z,26.1914,-97.0507,0.0,6.035635841,163.9374963,7.8,'11111222,11111222,11111222' 
TABS,ioos:station:wmo:42044:1,2014-10-02T18:30:00Z,26.1914,-97.0507,0.0,5.939604364,163.6705899,7.53,'11111222,11111222,11111222' 
TABS,ioos:station:wmo:42044:1,2014-10-02T19:00:00Z,26.1914,-97.0507,0.0,5.715776413,156.7095379,7.38,'11111222,11111222,11111222' 
TABS,ioos:station:wmo:42044:1,2014-10-02T19:30:00Z,26.1914,-97.0507,0.0,6.512641553,158.7543099,8.09,'11111222,11111222,11111222' 
TABS,ioos:station:wmo:42044:1,2014-10-02T20:00:00Z,26.1914,-97.0507,0.0,5.94418203,158.4852383,7.59,'11111222,11111222,11111222' 
TABS,ioos:station:wmo:42044:1,2014-10-02T20:30:00Z,26.1914,-97.0507,0.0,5.034212947,158.0720451,6.34,'11111222,11111222,11111222' 
TABS,ioos:station:wmo:42044:1,2014-10-02T21:00:00Z,26.1914,-97.0507,0.0,5.055294255,154.9559875,6.25,'11111222,11111222,11111222' 
TABS,ioos:station:wmo:42044:1,2014-10-02T21:30:00Z,26.1914,-97.0507,0.0,5.609884134,154.896994,7.31,'11111222,11111222,11111222' 
TABS,ioos:station:wmo:42044:1,2014-10-02T22:00:00Z,26.1914,-97.0507,0.0,5.671119819,152.7122863,7.05,'11111222,11111222,11111222' 
TABS,ioos:station:wmo:42044:1,2014-10-02T22:30:00Z,26.1914,-97.0507,0.0,5.443987509,149.9029351,7.01,'11111222,11111222,11111222' 
TABS,ioos:station:wmo:42044:1,2014-10-02T23:00:00Z,26.1914,-97.0507,0.0,6.084734998,151.750541,7.62,'11111222,11111222,11111222' 
TABS,ioos:station:wmo:42044:1,2014-10-02T23:30:00Z,26.1914,-97.0507,0.0,7.278825455,151.8861162,8.92,'11111222,11111222,11111222' 
TABS,ioos:station:wmo:42044:1,2014-10-03T00:00:00Z,26.1914,-97.0507,0.0,7.217735102,150.629553,9.05,'11111222,11111222,11111222' 
TABS,ioos:station:wmo:42044:1,2014-10-03T00:30:00Z,26.1914,-97.0507,0.0,6.82297589,151.7450207,9.01,'11111222,11111222,11111222' 
TABS,ioos:station:wmo:42044:1,2014-10-03T01:00:00Z,26.1914,-97.0507,0.0,6.259009506,150.7322837,7.9,'11111222,11111222,11111222' 
TABS,ioos:station:wmo:42044:1,2014-10-03T01:30:00Z,26.1914,-97.0507,0.0,6.797646652,153.4352214,8.61,'11111222,11111222,11111222' 
TABS,ioos:station:wmo:42044:1,2014-10-03T02:00:00Z,26.1914,-97.0507,0.0,7.335529974,152.3872472,8.98,'11111222,11111222,11111222' 
TABS,ioos:station:wmo:42044:1,2014-10-03T02:30:00Z,26.1914,-97.0507,0.0,6.453595897,153.9910869,8.21,'11111222,11111222,11111222' 
TABS,ioos:station:wmo:42044:1,2014-10-03T03:00:00Z,26.1914,-97.0507,0.0,7.098633671,154.5542757,9.09,'11111222,11111222,11111222' 
TABS,ioos:station:wmo:42044:1,2014-10-03T03:30:00Z,26.1914,-97.0507,0.0,7.276187188,153.2943596,9.06,'11111222,11111222,11111222' 
TABS,ioos:station:wmo:42044:1,2014-10-03T04:00:00Z,26.1914,-97.0507,0.0,7.433471598,156.3664745,9.26,'11111222,11111222,11111222' 
TABS,ioos:station:wmo:42044:1,2014-10-03T04:30:00Z,26.1914,-97.0507,0.0,6.508409944,160.8971642,8.35,'11111222,11111222,11111222' 
TABS,ioos:station:wmo:42044:1,2014-10-03T05:00:00Z,26.1914,-97.0507,0.0,6.343760714,164.737206,8.32,'11111222,11111222,11111222' 
TABS,ioos:station:wmo:42044:1,2014-10-03T05:30:00Z,26.1914,-97.0507,0.0,7.407327453,168.5537781,8.78,'11111222,11111222,11111222' 
TABS,ioos:station:wmo:42044:1,2014-10-03T06:00:00Z,26.1914,-97.0507,0.0,6.942578772,170.6328829,9.45,'11111222,11111222,11111222' 
TABS,ioos:station:wmo:42044:1,2014-10-03T06:30:00Z,26.1914,-97.0507,0.0,6.574389706,170.8101307,8.93,'11111222,11111222,11111222' 
TABS,ioos:station:wmo:42044:1,2014-10-03T07:00:00Z,26.1914,-97.0507,0.0,5.898643912,170.6337224,7.49,'11111222,11111222,11111222' 
TABS,ioos:station:wmo:42044:1,2014-10-03T07:30:00Z,26.1914,-97.0507,0.0,6.288950628,165.9198073,7.91,'11111222,11111222,11111222' 
TABS,ioos:station:wmo:42044:1,2014-10-03T08:00:00Z,26.1914,-97.0507,0.0,6.404100249,169.6553772,8.35,'11111222,11111222,11111222' 
TABS,ioos:station:wmo:42044:1,2014-10-03T08:30:00Z,26.1914,-97.0507,0.0,4.903243824,173.3245223,6.39,'11111222,11111222,11111222' 
TABS,ioos:station:wmo:42044:1,2014-10-03T09:00:00Z,26.1914,-97.0507,0.0,4.285650476,177.0576969,5.75,'11111222,11111222,11111222' 
TABS,ioos:station:wmo:42044:1,2014-10-03T09:30:00Z,26.1914,-97.0507,0.0,3.826447439,169.3069944,4.96,'11111222,11111222,11111222' 
TABS,ioos:station:wmo:42044:1,2014-10-03T10:00:00Z,26.1914,-97.0507,0.0,3.565234915,171.9383091,4.66,'11111222,11111222,11111222' 
TABS,ioos:station:wmo:42044:1,2014-10-03T10:30:00Z,26.1914,-97.0507,0.0,3.836313334,183.2877316,4.84,'11111222,11111222,11111222' 
TABS,ioos:station:wmo:42044:1,2014-10-03T11:00:00Z,26.1914,-97.0507,0.0,4.8284366,191.5893782,6.09,'11111222,11111222,11111222' 
TABS,ioos:station:wmo:42044:1,2014-10-03T11:30:00Z,26.1914,-97.0507,0.0,4.635903364,198.3569503,6.17,'11111222,11111222,11111222' 
TABS,ioos:station:wmo:42044:1,2014-10-03T12:00:00Z,26.1914,-97.0507,0.0,3.028481468,217.8916985,3.86,'11111222,11111222,11111222' 
TABS,ioos:station:wmo:42044:1,2014-10-03T12:30:00Z,26.1914,-97.0507,0.0,2.584434174,222.0202817,3.23,'11111222,11111222,11111222' 
TABS,ioos:station:wmo:42044:1,2014-10-03T13:00:00Z,26.1914,-97.0507,0.0,1.932795902,239.1888328,2.82,'11111222,11111222,11111222' 
TABS,ioos:station:wmo:42044:1,2014-10-03T13:30:00Z,26.1914,-97.0507,0.0,1.297574661,263.8061095,1.88,'11111222,11111222,11111222' 
TABS,ioos:station:wmo:42044:1,2014-10-03T14:00:00Z,26.1914,-97.0507,0.0,1.075639345,290.1195861,1.72,'11111222,11111222,11111222' 
TABS,ioos:station:wmo:42044:1,2014-10-03T14:30:00Z,26.1914,-97.0507,0.0,1.227232659,284.149443,2.02,'11111222,11111222,11111222' 
TABS,ioos:station:wmo:42044:1,2014-10-03T15:00:00Z,26.1914,-97.0507,0.0,1.878323721,327.8328122,2.59,'11111222,11111222,11111222' 
TABS,ioos:station:wmo:42044:1,2014-10-03T15:30:00Z,26.1914,-97.0507,0.0,4.997299271,11.89432472,9.47,'11111222,11111222,11111222' 
TABS,ioos:station:wmo:42044:1,2014-10-03T16:00:00Z,26.1914,-97.0507,0.0,5.086000393,36.84707024,7.0,'11111222,11111222,11111222' 
TABS,ioos:station:wmo:42044:1,2014-10-03T16:30:00Z,26.1914,-97.0507,0.0,5.594506234,46.23088033,7.34,'11111222,11111222,11111222' 
TABS,ioos:station:wmo:42044:1,2014-10-03T17:00:00Z,26.1914,-97.0507,0.0,4.994897396,49.7094276,7.23,'11111222,11111222,11111222' 
TABS,ioos:station:wmo:42044:1,2014-10-03T17:30:00Z,26.1914,-97.0507,0.0,4.73562034,47.6527417,6.2,'11111222,11111222,11111222' 
TABS,ioos:station:wmo:42044:1,2014-10-03T18:00:00Z,26.1914,-97.0507,0.0,5.584559069,47.53965106,7.09,'11111222,11111222,11111222' 
TABS,ioos:station:wmo:42044:1,2014-10-03T18:30:00Z,26.1914,-97.0507,0.0,6.546525796,39.79406167,8.65,'11111222,11111222,11111222' 
TABS,ioos:station:wmo:42044:1,2014-10-03T19:00:00Z,26.1914,-97.0507,0.0,8.272557041,37.53451091,10.66,'11111222,11111222,11111222' 
TABS,ioos:station:wmo:42044:1,2014-10-03T19:30:00Z,26.1914,-97.0507,0.0,8.72835036,33.36206606,11.46,'11111222,11111222,11111222' 
TABS,ioos:station:wmo:42044:1,2014-10-03T20:00:00Z,26.1914,-97.0507,0.0,8.365745633,44.27323577,10.91,'11111222,11111222,11111222' 
TABS,ioos:station:wmo:42044:1,2014-10-03T20:30:00Z,26.1914,-97.0507,0.0,8.264865395,42.84230685,10.11,'11111222,11111222,11111222' 
TABS,ioos:station:wmo:42044:1,2014-10-03T21:00:00Z,26.1914,-97.0507,0.0,8.327232433,38.46608697,10.69,'11111222,11111222,11111222' 
TABS,ioos:station:wmo:42044:1,2014-10-03T21:30:00Z,26.1914,-97.0507,0.0,8.061811211,44.1955877,9.89,'11111222,11111222,11111222' 
TABS,ioos:station:wmo:42044:1,2014-10-03T22:00:00Z,26.1914,-97.0507,0.0,7.19510945,48.1545198,8.78,'11111222,11111222,11111222' 
TABS,ioos:station:wmo:42044:1,2014-10-03T22:30:00Z,26.1914,-97.0507,0.0,7.289204346,55.67735812,9.39,'11111222,11111222,11111222' 
TABS,ioos:station:wmo:42044:1,2014-10-03T23:00:00Z,26.1914,-97.0507,0.0,7.594741602,49.32473463,9.39,'11111222,11111222,11111222' 
TABS,ioos:station:wmo:42044:1,2014-10-03T23:30:00Z,26.1914,-97.0507,0.0,7.214436915,47.86488719,8.84,'11111222,11111222,11111222' 
TABS,ioos:station:wmo:42044:1,2014-10-04T00:00:00Z,26.1914,-97.0507,0.0,6.979749279,45.75429457,9.07,'11111222,11111222,11111222' 
TABS,ioos:station:wmo:42044:1,2014-10-04T00:30:00Z,26.1914,-97.0507,0.0,7.022855545,43.90352677,8.96,'11111222,11111222,11111222' 
TABS,ioos:station:wmo:42044:1,2014-10-04T01:00:00Z,26.1914,-97.0507,0.0,7.110344577,53.69384158,8.75,'11111222,11111222,11111222' 
TABS,ioos:station:wmo:42044:1,2014-10-04T01:30:00Z,26.1914,-97.0507,0.0,7.527874866,51.8509914,9.21,'11111222,11111222,11111222' 
TABS,ioos:station:wmo:42044:1,2014-10-04T02:00:00Z,26.1914,-97.0507,0.0,7.826429582,53.7300834,9.85,'11111222,11111222,11111222' 
TABS,ioos:station:wmo:42044:1,2014-10-04T02:30:00Z,26.1914,-97.0507,0.0,7.78164507,63.76387172,9.81,'11111222,11111222,11111222' 
TABS,ioos:station:wmo:42044:1,2014-10-04T03:00:00Z,26.1914,-97.0507,0.0,7.911820271,64.14710513,10.04,'11111222,11111222,11111222' 
TABS,ioos:station:wmo:42044:1,2014-10-04T03:30:00Z,26.1914,-97.0507,0.0,8.404772454,64.56267142,10.87,'11111222,11111222,11111222' 
TABS,ioos:station:wmo:42044:1,2014-10-04T04:00:00Z,26.1914,-97.0507,0.0,8.662938301,60.77159549,10.56,'11111222,11111222,11111222' 
TABS,ioos:station:wmo:42044:1,2014-10-04T04:30:00Z,26.1914,-97.0507,0.0,8.717178443,60.14063274,11.17,'11111222,11111222,11111222' 
TABS,ioos:station:wmo:42044:1,2014-10-04T05:00:00Z,26.1914,-97.0507,0.0,8.600587189,64.14963116,11.12,'11111222,11111222,11111222' 
TABS,ioos:station:wmo:42044:1,2014-10-04T05:30:00Z,26.1914,-97.0507,0.0,8.654524828,57.26442936,10.9,'11111222,11111222,11111222' 
TABS,ioos:station:wmo:42044:1,2014-10-04T06:00:00Z,26.1914,-97.0507,0.0,8.64893057,51.19501881,10.75,'11111222,11111222,11111222' 
TABS,ioos:station:wmo:42044:1,2014-10-04T06:30:00Z,26.1914,-97.0507,0.0,8.728000917,53.10350934,10.63,'11111222,11111222,11111222' 
TABS,ioos:station:wmo:42044:1,2014-10-04T07:00:00Z,26.1914,-97.0507,0.0,8.571610117,61.0424292,10.65,'11111222,11111222,11111222' 
TABS,ioos:station:wmo:42044:1,2014-10-04T07:30:00Z,26.1914,-97.0507,0.0,8.445649768,66.92575329,10.85,'11111222,11111222,11111222' 
TABS,ioos:station:wmo:42044:1,2014-10-04T08:00:00Z,26.1914,-97.0507,0.0,8.157352512,63.81152962,10.75,'11111222,11111222,11111222' 
TABS,ioos:station:wmo:42044:1,2014-10-04T08:30:00Z,26.1914,-97.0507,0.0,8.539613574,56.36541589,10.63,'11111222,11111222,11111222' 
TABS,ioos:station:wmo:42044:1,2014-10-04T09:00:00Z,26.1914,-97.0507,0.0,8.384461819,53.73113116,10.49,'11111222,11111222,11111222' 
TABS,ioos:station:wmo:42044:1,2014-10-04T09:30:00Z,26.1914,-97.0507,0.0,8.458019863,62.46511056,10.79,'11111222,11111222,11111222' 
TABS,ioos:station:wmo:42044:1,2014-10-04T10:00:00Z,26.1914,-97.0507,0.0,9.097032483,58.30137564,11.88,'11111222,11111222,11111222' 
TABS,ioos:station:wmo:42044:1,2014-10-04T10:30:00Z,26.1914,-97.0507,0.0,8.498499868,64.48991677,11.15,'11111222,11111222,11111222' 
TABS,ioos:station:wmo:42044:1,2014-10-04T11:00:00Z,26.1914,-97.0507,0.0,7.939584372,64.56421693,10.35,'11111222,11111222,11111222' 
TABS,ioos:station:wmo:42044:1,2014-10-04T11:30:00Z,26.1914,-97.0507,0.0,8.629420606,62.00917604,10.93,'11111222,11111222,11111222' 
TABS,ioos:station:wmo:42044:1,2014-10-04T12:00:00Z,26.1914,-97.0507,0.0,8.385374172,63.12901615,10.42,'11111222,11111222,11111222' 
TABS,ioos:station:wmo:42044:1,2014-10-04T12:30:00Z,26.1914,-97.0507,0.0,7.789736838,60.80216131,9.94,'11111222,11111222,11111222' 
TABS,ioos:station:wmo:42044:1,2014-10-04T13:00:00Z,26.1914,-97.0507,0.0,7.525769064,69.30101141,9.83,'11111222,11111222,11111222' 
TABS,ioos:station:wmo:42044:1,2014-10-04T13:30:00Z,26.1914,-97.0507,0.0,7.813430745,65.50106218,10.67,'11111222,11111222,11111222' 
TABS,ioos:station:wmo:42044:1,2014-10-04T14:00:00Z,26.1914,-97.0507,0.0,7.325960688,62.70007071,9.46,'11111222,11111222,11111222' 
TABS,ioos:station:wmo:42044:1,2014-10-04T14:30:00Z,26.1914,-97.0507,0.0,7.413352818,72.49344633,9.72,'11111222,11111222,11111222' 
TABS,ioos:station:wmo:42044:1,2014-10-04T15:00:00Z,26.1914,-97.0507,0.0,6.910463081,70.64697263,8.88,'11111222,11111222,11111222' 
TABS,ioos:station:wmo:42044:1,2014-10-04T15:30:00Z,26.1914,-97.0507,0.0,7.386961486,68.22702683,9.56,'11111222,11111222,11111222' 
TABS,ioos:station:wmo:42044:1,2014-10-04T16:00:00Z,26.1914,-97.0507,0.0,6.776820789,69.07744894,8.77,'11111222,11111222,11111222' 
TABS,ioos:station:wmo:42044:1,2014-10-04T16:30:00Z,26.1914,-97.0507,0.0,6.210829252,71.2146025,8.27,'11111222,11111222,11111222' 
TABS,ioos:station:wmo:42044:1,2014-10-04T17:00:00Z,26.1914,-97.0507,0.0,5.895981682,68.61326839,8.24,'11111222,11111222,11111222' 
TABS,ioos:station:wmo:42044:1,2014-10-04T17:30:00Z,26.1914,-97.0507,0.0,6.171482804,66.50847185,8.1,'11111222,11111222,11111222' 
TABS,ioos:station:wmo:42044:1,2014-10-04T18:00:00Z,26.1914,-97.0507,0.0,5.485489951,73.15030707,7.58,'11111222,11111222,11111222' 
TABS,ioos:station:wmo:42044:1,2014-10-04T18:30:00Z,26.1914,-97.0507,0.0,5.557067572,66.34073799,7.39,'11111222,11111222,11111222' 